Location: Days
(41.3591°N, 106.7339°W)
Time: 18:21:18
(UTC+00:00)

Envisat - Visible Passes

Search period start: 25 January 2022 00:00
Search period end: 04 February 2022 00:00
Orbit: 764 x 766 km, 98.2° (Epoch: 25 January)

Date Brightness Start Highest point End Pass type
(mag) Time Alt. Az. Time Alt. Az. Time Alt. Az.
25 Jan 3.7 11:40:10 10° NNE 11:45:08 52° E 11:50:04 10° S visible
25 Jan 4.2 13:20:09 10° NNW 13:23:44 20° WNW 13:27:19 10° WSW visible
26 Jan 6.1 00:36:31 10° WSW 00:39:03 14° W 00:41:35 10° WNW visible
26 Jan 5.1 11:04:01 10° NE 11:08:03 23° E 11:12:04 10° SSE visible
26 Jan 3.3 12:42:27 10° N 12:47:11 41° WNW 12:51:54 10° SW visible
27 Jan 2.9 12:05:20 10° NNE 12:10:27 89° WNW 12:15:31 10° SSW visible
27 Jan 4.7 13:46:55 10° NW 13:48:40 12° WNW 13:50:25 10° W visible
28 Jan 4.2 11:28:42 10° NNE 11:33:30 40° E 11:38:15 10° SSE visible
28 Jan 4.0 13:08:12 10° NNW 13:12:16 24° WNW 13:16:18 10° WSW visible
29 Jan 5.4 10:52:52 10° NE 10:56:21 18° E 10:59:49 10° SE visible
29 Jan 3.1 12:30:43 10° N 12:35:39 52° WNW 12:40:33 10° SSW visible
30 Jan 3.1 11:53:45 10° NNE 11:58:51 72° ESE 12:03:54 10° S visible
30 Jan 4.5 13:34:28 10° NNW 13:37:14 15° WNW 13:40:00 10° W visible
31 Jan 4.6 11:17:18 10° NNE 11:21:50 32° E 11:26:20 10° SSE visible
31 Jan 3.7 12:56:22 10° N 13:00:47 30° WNW 13:05:09 10° SW visible
01 Feb 5.7 10:41:57 10° ENE 10:44:38 14° E 10:47:19 10° ESE visible
01 Feb 2.9 12:19:03 10° N 12:24:06 66° WNW 12:29:07 10° SSW visible
02 Feb 3.6 11:42:13 10° NNE 11:47:14 56° E 11:52:12 10° S visible
02 Feb 4.3 13:22:21 10° NNW 13:25:47 19° WNW 13:29:13 10° WSW visible
03 Feb 5.0 11:06:00 10° NE 11:10:10 25° E 11:14:18 10° SSE visible
03 Feb 3.4 12:44:34 10° N 12:49:15 38° WNW 12:53:54 10° SW visible
